Location: Dąbrówka
(52.2799°N, 15.8070°E)
Time: 01:08:48
(UTC+01:00)

ISS - Pass Details

Date: 30 January 2019
Orbit: 403 x 411 km, 51.6° (Epoch: 22 February)

Event Time Altitude Azimuth Distance (km) Brightness Sun altitude
Rises 19:00:39 0° 269° (W) 2,337 1.6 -21.5°
Reaches altitude 10° 19:02:44 10° 269° (W) 1,477 0.2 -21.8°
Enters shadow 19:05:24 55° 260° (W) 500 -3.1 -22.2°
